﻿,,Stage.Telemetry@S105,Stage.Telemetry@S105,Stage.Telemetry@S105,Stage.Telemetry@S105,Stage.Field Visits@S105,Stage.Field Visits@S105,Stage.Field Visits@S105,Stage.Field Visits@S105
mm/dd/yyyy,HH:MM:SS,ft,,,,ft,,,
Date,Time,Value,Grade,Approval,Interpolation Code,Value,Grade,Approval,Interpolation Code
04/22/2013,15:40:00,,,,,2.07,0,2,7
05/08/2013,16:44:59,,1,0,1,,,,
05/08/2013,16:45:00,1.47000000002599,1,3,1,,,,
05/08/2013,17:00:00,1.47000779683651,1,3,1,,,,
05/08/2013,17:15:00,1.46001559364703,1,3,1,,,,
05/08/2013,17:30:00,1.46002339045755,1,3,1,,,,
05/08/2013,17:45:00,1.46003118726807,1,3,1,,,,
05/08/2013,18:00:00,1.46003898407859,1,3,1,,,,
05/08/2013,18:15:00,1.4700467808891,1,3,1,,,,
05/08/2013,18:30:00,1.47005457769963,1,3,1,,,,
05/08/2013,18:45:00,1.48006237451015,1,3,1,,,,
05/08/2013,19:00:00,1.48007017132066,1,3,1,,,,
05/08/2013,19:15:00,1.48007796813119,1,3,1,,,,
05/08/2013,19:30:00,1.4900857649417,1,3,1,,,,
05/08/2013,19:45:00,1.49009356175222,1,3,1,,,,
05/08/2013,20:00:00,1.50010135856274,1,3,1,,,,
05/08/2013,20:15:00,1.51010915537326,1,3,1,,,,
05/08/2013,20:30:00,1.51011695218378,1,3,1,,,,
05/08/2013,20:45:00,1.5201247489943,1,3,1,,,,
05/08/2013,21:00:00,1.53013254580482,1,3,1,,,,
05/08/2013,21:15:00,1.54014034261534,1,3,1,,,,
05/08/2013,21:30:00,1.54014813942586,1,3,1,,,,
05/08/2013,21:45:00,1.55015593623638,1,3,1,,,,
05/08/2013,22:00:00,1.5501637330469,1,3,1,,,,
05/08/2013,22:15:00,1.55017152985742,1,3,1,,,,
05/08/2013,22:30:00,1.55017932666794,1,3,1,,,,
05/08/2013,22:45:00,1.56018712347845,1,3,1,,,,
05/08/2013,23:00:00,1.56019492028898,1,3,1,,,,
05/08/2013,23:15:00,1.56020271709949,1,3,1,,,,
05/08/2013,23:30:00,1.56021051391001,1,3,1,,,,
05/08/2013,23:45:00,1.56021831072053,1,3,1,,,,
05/09/2013,00:00:00,1.57022610753105,1,3,1,,,,
05/09/2013,00:15:00,1.57023390434157,1,3,1,,,,
05/09/2013,00:30:00,1.56024170115209,1,3,1,,,,
05/09/2013,00:45:00,1.56024949796261,1,3,1,,,,
05/09/2013,01:00:00,1.56025729477313,1,3,1,,,,
05/09/2013,01:15:00,1.56026509158365,1,3,1,,,,
05/09/2013,01:30:00,1.55027288839417,1,3,1,,,,
05/09/2013,01:45:00,1.56028068520469,1,3,1,,,,
05/09/2013,02:00:00,1.55028848201521,1,3,1,,,,
05/09/2013,02:15:00,1.55029627882573,1,3,1,,,,
05/09/2013,02:30:00,1.54030407563624,1,3,1,,,,
05/09/2013,02:45:00,1.56031187244677,1,3,1,,,,
05/09/2013,03:00:00,1.55031966925728,1,3,1,,,,
05/09/2013,03:15:00,1.5503274660678,1,3,1,,,,
05/09/2013,03:30:00,1.54033526287832,1,3,1,,,,
05/09/2013,03:45:00,1.54034305968884,1,3,1,,,,
05/09/2013,04:00:00,1.53035085649936,1,3,1,,,,
05/09/2013,04:15:00,1.53035865330988,1,3,1,,,,
05/09/2013,04:30:00,1.5303664501204,1,3,1,,,,
05/09/2013,04:45:00,1.53037424693092,1,3,1,,,,
05/09/2013,05:00:00,1.53038204374144,1,3,1,,,,
05/09/2013,05:15:00,1.52038984055196,1,3,1,,,,
05/09/2013,05:30:00,1.52039763736248,1,3,1,,,,
05/09/2013,05:45:00,1.530405434173,1,3,1,,,,
05/09/2013,06:00:00,1.51041323098351,1,3,1,,,,
05/09/2013,06:15:00,1.52042102779403,1,3,1,,,,
05/09/2013,06:30:00,1.52042882460456,1,3,1,,,,
05/09/2013,06:45:00,1.51043662141508,1,3,1,,,,
05/09/2013,07:00:00,1.51044441822559,1,3,1,,,,
05/09/2013,07:15:00,1.50045221503612,1,3,1,,,,
05/09/2013,07:30:00,1.51046001184663,1,3,1,,,,
05/09/2013,07:45:00,1.50046780865715,1,3,1,,,,
05/09/2013,08:00:00,1.50047560546767,1,3,1,,,,
05/09/2013,08:15:00,1.50048340227819,1,3,1,,,,
05/09/2013,08:30:00,1.50049119908871,1,3,1,,,,
05/09/2013,08:45:00,1.50049899589923,1,3,1,,,,
05/09/2013,09:00:00,1.49050679270975,1,3,1,,,,
05/09/2013,09:15:00,1.49051458952027,1,3,1,,,,
05/09/2013,09:30:00,1.49052238633079,1,3,1,,,,
05/09/2013,09:45:00,1.49053018314131,1,3,1,,,,
05/09/2013,10:00:00,1.48053797995183,1,3,1,,,,
05/09/2013,10:15:00,1.48054577676235,1,3,1,,,,
05/09/2013,10:30:00,1.49055357357287,1,3,1,,,,
05/09/2013,10:45:00,1.48056137038338,1,3,1,,,,
05/09/2013,11:00:00,1.48056916719391,1,3,1,,,,
05/09/2013,11:15:00,1.48057696400442,1,3,1,,,,
05/09/2013,11:30:00,1.48058476081494,1,3,1,,,,
05/09/2013,11:45:00,1.47059255762546,1,3,1,,,,
05/09/2013,12:00:00,1.47060035443598,1,3,1,,,,
05/09/2013,12:15:00,1.4706081512465,1,3,1,,,,
05/09/2013,12:30:00,1.46061594805702,1,3,1,,,,
05/09/2013,12:45:00,1.47062374486754,1,3,1,,,,
05/09/2013,13:00:00,1.47063154167806,1,3,1,,,,
05/09/2013,13:15:00,1.47063933848858,1,3,1,,,,
05/09/2013,13:30:00,1.4706471352991,1,3,1,,,,
05/09/2013,13:45:00,1.47065493210962,1,3,1,,,,
05/09/2013,14:00:00,1.46066272892014,1,3,1,,,,
05/09/2013,14:15:00,1.47067052573065,1,3,1,,,,
05/09/2013,14:30:00,1.46067832254117,1,3,1,,,,
05/09/2013,14:45:00,1.46068611935169,1,3,1,,,,
05/09/2013,15:00:00,1.46069391616221,1,3,1,,,,
05/09/2013,15:15:00,1.46070171297273,1,3,1,,,,
05/09/2013,15:30:00,1.46070950978325,1,3,1,,,,
05/09/2013,15:45:00,1.45071730659377,1,3,1,,,,
05/09/2013,16:00:00,1.45072510340429,1,3,1,,,,
05/09/2013,16:15:00,1.45073290021481,1,3,1,,,,
05/09/2013,16:30:00,1.45074069702533,1,3,1,,,,
05/09/2013,16:45:00,1.45074849383585,1,3,1,,,,
05/09/2013,17:00:00,1.46075629064637,1,3,1,,,,
05/09/2013,17:15:00,1.46076408745689,1,3,1,,,,
05/09/2013,17:30:00,1.4507718842674,1,3,1,,,,
05/09/2013,17:45:00,1.45077968107793,1,3,1,,,,
05/09/2013,18:00:00,1.46078747788844,1,3,1,,,,
05/09/2013,18:15:00,1.46079527469896,1,3,1,,,,
05/09/2013,18:30:00,1.46080307150949,1,3,1,,,,
05/09/2013,18:45:00,1.47081086832,1,3,1,,,,
05/09/2013,19:00:00,1.48081866513052,1,3,1,,,,
05/09/2013,19:15:00,1.48082646194105,1,3,1,,,,
05/09/2013,19:30:00,1.48083425875156,1,3,1,,,,
05/09/2013,19:45:00,1.49084205556208,1,3,1,,,,
05/09/2013,20:00:00,1.5008498523726,1,3,1,,,,
05/09/2013,20:15:00,1.51085764918312,1,3,1,,,,
05/09/2013,20:30:00,1.51086544599364,1,3,1,,,,
05/09/2013,20:45:00,1.51087324280416,1,3,1,,,,
05/09/2013,21:00:00,1.52088103961468,1,3,1,,,,
05/09/2013,21:15:00,1.53088883642519,1,3,1,,,,
05/09/2013,21:30:00,1.53089663323572,1,3,1,,,,
05/09/2013,21:45:00,1.54090443004624,1,3,1,,,,
05/09/2013,22:00:00,1.54091222685676,1,3,1,,,,
05/09/2013,22:15:00,1.54092002366728,1,3,1,,,,
05/09/2013,22:30:00,1.54092782047779,1,3,1,,,,
05/09/2013,22:45:00,1.56093561728831,1,3,1,,,,
05/09/2013,23:00:00,1.55094341409883,1,3,1,,,,
05/09/2013,23:15:00,1.55095121090935,1,3,1,,,,
05/09/2013,23:30:00,1.54095900771987,1,3,1,,,,
05/09/2013,23:45:00,1.55096680453039,1,3,1,,,,
05/10/2013,00:00:00,1.55097460134091,1,3,1,,,,
05/10/2013,00:15:00,1.55098239815143,1,3,1,,,,
05/10/2013,00:30:00,1.55099019496195,1,3,1,,,,
05/10/2013,00:45:00,1.54099799177247,1,3,1,,,,
05/10/2013,01:00:00,1.54100578858299,1,3,1,,,,
05/10/2013,01:15:00,1.54101358539351,1,3,1,,,,
05/10/2013,01:30:00,1.54102138220403,1,3,1,,,,
05/10/2013,01:45:00,1.54102917901454,1,3,1,,,,
05/10/2013,02:00:00,1.53103697582507,1,3,1,,,,
05/10/2013,02:15:00,1.53104477263558,1,3,1,,,,
05/10/2013,02:30:00,1.5310525694461,1,3,1,,,,
05/10/2013,02:45:00,1.53106036625662,1,3,1,,,,
05/10/2013,03:00:00,1.52106816306714,1,3,1,,,,
05/10/2013,03:15:00,1.52107595987766,1,3,1,,,,
05/10/2013,03:30:00,1.53108375668818,1,3,1,,,,
05/10/2013,03:45:00,1.5210915534987,1,3,1,,,,
05/10/2013,04:00:00,1.52109935030922,1,3,1,,,,
05/10/2013,04:15:00,1.51110714711974,1,3,1,,,,
05/10/2013,04:30:00,1.51111494393026,1,3,1,,,,
05/10/2013,04:45:00,1.51112274074078,1,3,1,,,,
05/10/2013,05:00:00,1.5011305375513,1,3,1,,,,
05/10/2013,05:15:00,1.50113833436182,1,3,1,,,,
05/10/2013,05:30:00,1.49114613117233,1,3,1,,,,
05/10/2013,05:45:00,1.50115392798286,1,3,1,,,,
05/10/2013,06:00:00,1.50116172479337,1,3,1,,,,
05/10/2013,06:15:00,1.49116952160389,1,3,1,,,,
05/10/2013,06:30:00,1.49117731841442,1,3,1,,,,
05/10/2013,06:45:00,1.49118511522493,1,3,1,,,,
05/10/2013,07:00:00,1.49119291203545,1,3,1,,,,
05/10/2013,07:15:00,1.48120070884597,1,3,1,,,,
05/10/2013,07:30:00,1.48120850565649,1,3,1,,,,
05/10/2013,07:45:00,1.47121630246701,1,3,1,,,,
05/10/2013,08:00:00,1.48122409927753,1,3,1,,,,
05/10/2013,08:15:00,1.47123189608805,1,3,1,,,,
05/10/2013,08:30:00,1.48123969289857,1,3,1,,,,
05/10/2013,08:45:00,1.47124748970909,1,3,1,,,,
05/10/2013,09:00:00,1.47125528651961,1,3,1,,,,
05/10/2013,09:15:00,1.47126308333012,1,3,1,,,,
05/10/2013,09:30:00,1.47127088014065,1,3,1,,,,
05/10/2013,09:45:00,1.47127867695117,1,3,1,,,,
05/10/2013,10:00:00,1.46128647376168,1,3,1,,,,
05/10/2013,10:15:00,1.46129427057221,1,3,1,,,,
05/10/2013,10:30:00,1.46130206738272,1,3,1,,,,
05/10/2013,10:45:00,1.46130986419324,1,3,1,,,,
05/10/2013,11:00:00,1.46131766100376,1,3,1,,,,
05/10/2013,11:15:00,1.46132545781428,1,3,1,,,,
05/10/2013,11:30:00,1.4513332546248,1,3,1,,,,
05/10/2013,11:45:00,1.45134105143532,1,3,1,,,,
05/10/2013,12:00:00,1.45134884824584,1,3,1,,,,
05/10/2013,12:15:00,1.44135664505636,1,3,1,,,,
05/10/2013,12:30:00,1.45136444186688,1,3,1,,,,
05/10/2013,12:45:00,1.4413722386774,1,3,1,,,,
05/10/2013,13:00:00,1.44138003548792,1,3,1,,,,
05/10/2013,13:15:00,1.44138783229844,1,3,1,,,,
05/10/2013,13:30:00,1.44139562910896,1,3,1,,,,
05/10/2013,13:45:00,1.44140342591947,1,3,1,,,,
05/10/2013,14:00:00,1.44141122273,1,3,1,,,,
05/10/2013,14:15:00,1.43141901954051,1,3,1,,,,
05/10/2013,14:30:00,1.43142681635103,1,3,1,,,,
05/10/2013,14:45:00,1.43143461316155,1,3,1,,,,
05/10/2013,15:00:00,1.43144240997207,1,3,1,,,,
05/10/2013,15:15:00,1.43145020678259,1,3,1,,,,
05/10/2013,15:30:00,1.42145800359311,1,3,1,,,,
05/10/2013,15:45:00,1.42146580040363,1,3,1,,,,
05/10/2013,16:00:00,1.42147359721415,1,3,1,,,,
05/10/2013,16:15:00,1.42148139402467,1,3,1,,,,
05/10/2013,16:30:00,1.41148919083519,1,3,1,,,,
05/10/2013,16:45:00,1.41149698764571,1,3,1,,,,
05/10/2013,17:00:00,1.41150478445623,1,3,1,,,,
05/10/2013,17:15:00,1.41151258126675,1,3,1,,,,
05/10/2013,17:30:00,1.41152037807726,1,3,1,,,,
05/10/2013,17:45:00,1.42152817488778,1,3,1,,,,
05/10/2013,18:00:00,1.4215359716983,1,3,1,,,,
05/10/2013,18:15:00,1.42154376850882,1,3,1,,,,
05/10/2013,18:30:00,1.43155156531935,1,3,1,,,,
05/10/2013,18:45:00,1.43155936212986,1,3,1,,,,
05/10/2013,19:00:00,1.42156715894038,1,3,1,,,,
05/10/2013,19:15:00,1.4315749557509,1,3,1,,,,
05/10/2013,19:30:00,1.43158275256142,1,3,1,,,,
05/10/2013,19:45:00,1.44159054937194,1,3,1,,,,
05/10/2013,20:00:00,1.44159834618246,1,3,1,,,,
05/10/2013,20:15:00,1.45160614299298,1,3,1,,,,
05/10/2013,20:30:00,1.45161393980349,1,3,1,,,,
05/10/2013,20:45:00,1.46162173661402,1,3,1,,,,
05/10/2013,21:00:00,1.46162953342454,1,3,1,,,,
05/10/2013,21:15:00,1.46163733023505,1,3,1,,,,
05/10/2013,21:30:00,1.46164512704558,1,3,1,,,,
05/10/2013,21:45:00,1.4716529238561,1,3,1,,,,
05/10/2013,22:00:00,1.47166072066661,1,3,1,,,,
05/10/2013,22:15:00,1.47166851747714,1,3,1,,,,
05/10/2013,22:30:00,1.47167631428765,1,3,1,,,,
05/10/2013,22:45:00,1.48168411109817,1,3,1,,,,
05/10/2013,23:00:00,1.48169190790869,1,3,1,,,,
05/10/2013,23:15:00,1.49169970471921,1,3,1,,,,
05/10/2013,23:30:00,1.49170750152973,1,3,1,,,,
05/10/2013,23:45:00,1.49171529834025,1,3,1,,,,
05/11/2013,00:00:00,1.48172309515077,1,3,1,,,,
05/11/2013,00:15:00,1.48173089196129,1,3,1,,,,
05/11/2013,00:30:00,1.49173868877181,1,3,1,,,,
05/11/2013,00:45:00,1.49174648558233,1,3,1,,,,
05/11/2013,01:00:00,1.49175428239285,1,3,1,,,,
05/11/2013,01:15:00,1.49176207920337,1,3,1,,,,
05/11/2013,01:30:00,1.49176987601388,1,3,1,,,,
05/11/2013,01:45:00,1.4917776728244,1,3,1,,,,
05/11/2013,02:00:00,1.48178546963492,1,3,1,,,,
05/11/2013,02:15:00,1.48179326644544,1,3,1,,,,
05/11/2013,02:30:00,1.48180106325596,1,3,1,,,,
05/11/2013,02:45:00,1.48180886006648,1,3,1,,,,
05/11/2013,03:00:00,1.481816656877,1,3,1,,,,
05/11/2013,03:15:00,1.48182445368752,1,3,1,,,,
05/11/2013,03:30:00,1.47183225049804,1,3,1,,,,
05/11/2013,03:45:00,1.47184004730856,1,3,1,,,,
05/11/2013,04:00:00,1.47184784411908,1,3,1,,,,
05/11/2013,04:15:00,1.4618556409296,1,3,1,,,,
05/11/2013,04:30:00,1.46186343774012,1,3,1,,,,
05/11/2013,04:45:00,1.47187123455063,1,3,1,,,,
05/11/2013,05:00:00,1.47187903136116,1,3,1,,,,
05/11/2013,05:15:00,1.46188682817167,1,3,1,,,,
05/11/2013,05:30:00,1.45189462498219,1,3,1,,,,
05/11/2013,05:45:00,1.46190242179271,1,3,1,,,,
05/11/2013,06:00:00,1.46191021860323,1,3,1,,,,
05/11/2013,06:15:00,1.46191801541375,1,3,1,,,,
05/11/2013,06:30:00,1.45192581222427,1,3,1,,,,
05/11/2013,06:45:00,1.45193360903479,1,3,1,,,,
05/11/2013,07:00:00,1.45194140584531,1,3,1,,,,
05/11/2013,07:15:00,1.45194920265583,1,3,1,,,,
05/11/2013,07:30:00,1.45195699946635,1,3,1,,,,
05/11/2013,07:45:00,1.44196479627687,1,3,1,,,,
05/11/2013,08:00:00,1.45197259308739,1,3,1,,,,
05/11/2013,08:15:00,1.45198038989791,1,3,1,,,,
05/11/2013,08:30:00,1.45198818670842,1,3,1,,,,
05/11/2013,08:45:00,1.45199598351895,1,3,1,,,,
05/11/2013,09:00:00,1.45200378032946,1,3,1,,,,
05/11/2013,09:15:00,1.44201157713998,1,3,1,,,,
05/11/2013,09:30:00,1.44201937395051,1,3,1,,,,
05/11/2013,09:45:00,1.43202717076102,1,3,1,,,,
05/11/2013,10:00:00,1.44203496757154,1,3,1,,,,
05/11/2013,10:15:00,1.43204276438206,1,3,1,,,,
05/11/2013,10:30:00,1.43205056119258,1,3,1,,,,
05/11/2013,10:45:00,1.4320583580031,1,3,1,,,,
05/11/2013,11:00:00,1.43206615481362,1,3,1,,,,
05/11/2013,11:15:00,1.43207395162414,1,3,1,,,,
05/11/2013,11:30:00,1.43208174843466,1,3,1,,,,
05/11/2013,11:45:00,1.42208954524518,1,3,1,,,,
05/11/2013,12:00:00,1.4220973420557,1,3,1,,,,
05/11/2013,12:15:00,1.42210513886622,1,3,1,,,,
05/11/2013,12:30:00,1.42211293567674,1,3,1,,,,
05/11/2013,12:45:00,1.42212073248726,1,3,1,,,,
05/11/2013,13:00:00,1.42212852929777,1,3,1,,,,
05/11/2013,13:15:00,1.4221363261083,1,3,1,,,,
05/11/2013,13:30:00,1.42214412291881,1,3,1,,,,
05/11/2013,13:45:00,1.42215191972933,1,3,1,,,,
05/11/2013,14:00:00,1.41215971653985,1,3,1,,,,
05/11/2013,14:15:00,1.41216751335037,1,3,1,,,,
05/11/2013,14:30:00,1.41217531016089,1,3,1,,,,
05/11/2013,14:45:00,1.41218310697141,1,3,1,,,,
05/11/2013,15:00:00,1.41219090378193,1,3,1,,,,
05/11/2013,15:15:00,1.40219870059245,1,3,1,,,,
05/11/2013,15:30:00,1.40220649740297,1,3,1,,,,
05/11/2013,15:45:00,1.40221429421349,1,3,1,,,,
05/11/2013,16:00:00,1.40222209102401,1,3,1,,,,
05/11/2013,16:15:00,1.40222988783453,1,3,1,,,,
05/11/2013,16:30:00,1.40223768464505,1,3,1,,,,
05/11/2013,16:45:00,1.40224548145556,1,3,1,,,,
05/11/2013,17:00:00,1.40225327826609,1,3,1,,,,
05/11/2013,17:15:00,1.4022610750766,1,3,1,,,,
05/11/2013,17:30:00,1.40226887188712,1,3,1,,,,
05/11/2013,17:45:00,1.40227666869764,1,3,1,,,,
05/11/2013,18:00:00,1.40228446550816,1,3,1,,,,
05/11/2013,18:15:00,1.41229226231868,1,3,1,,,,
05/11/2013,18:30:00,1.4123000591292,1,3,1,,,,
05/11/2013,18:45:00,1.41230785593972,1,3,1,,,,
05/11/2013,19:00:00,1.40231565275024,1,3,1,,,,
05/11/2013,19:15:00,1.42232344956076,1,3,1,,,,
05/11/2013,19:30:00,1.42233124637128,1,3,1,,,,
05/11/2013,19:45:00,1.4323390431818,1,3,1,,,,
05/11/2013,20:00:00,1.42234683999232,1,3,1,,,,
05/11/2013,20:15:00,1.43235463680283,1,3,1,,,,
05/11/2013,20:30:00,1.44236243361335,1,3,1,,,,
05/11/2013,20:45:00,1.44237023042388,1,3,1,,,,
05/11/2013,21:00:00,1.44237802723439,1,3,1,,,,
05/11/2013,21:15:00,1.45238582404491,1,3,1,,,,
05/11/2013,21:30:00,1.46239362085544,1,3,1,,,,
05/11/2013,21:45:00,1.46240141766595,1,3,1,,,,
05/11/2013,22:00:00,1.47240921447647,1,3,1,,,,
05/11/2013,22:15:00,1.47241701128699,1,3,1,,,,
05/11/2013,22:30:00,1.46242480809751,1,3,1,,,,
05/11/2013,22:45:00,1.47243260490803,1,3,1,,,,
05/11/2013,23:00:00,1.48244040171855,1,3,1,,,,
05/11/2013,23:15:00,1.47244819852907,1,3,1,,,,
05/11/2013,23:30:00,1.48245599533958,1,3,1,,,,
05/11/2013,23:45:00,1.47246379215011,1,3,1,,,,
05/12/2013,00:00:00,1.48247158896063,1,3,1,,,,
05/12/2013,00:15:00,1.47247938577115,1,3,1,,,,
05/12/2013,00:30:00,1.47248718258167,1,3,1,,,,
05/12/2013,00:45:00,1.47249497939219,1,3,1,,,,
05/12/2013,01:00:00,1.4725027762027,1,3,1,,,,
05/12/2013,01:15:00,1.47251057301323,1,3,1,,,,
05/12/2013,01:30:00,1.47251836982374,1,3,1,,,,
05/12/2013,01:45:00,1.47252616663426,1,3,1,,,,
05/12/2013,02:00:00,1.46253396344478,1,3,1,,,,
05/12/2013,02:15:00,1.4725417602553,1,3,1,,,,
05/12/2013,02:30:00,1.47254955706582,1,3,1,,,,
05/12/2013,02:45:00,1.47255735387634,1,3,1,,,,
05/12/2013,03:00:00,1.46256515068686,1,3,1,,,,
05/12/2013,03:15:00,1.45257294749738,1,3,1,,,,
05/12/2013,03:30:00,1.4625807443079,1,3,1,,,,
05/12/2013,03:45:00,1.45258854111842,1,3,1,,,,
05/12/2013,04:00:00,1.45259633792894,1,3,1,,,,
05/12/2013,04:15:00,1.45260413473946,1,3,1,,,,
05/12/2013,04:30:00,1.45261193154997,1,3,1,,,,
05/12/2013,04:45:00,1.45261972836049,1,3,1,,,,
05/12/2013,05:00:00,1.45262752517101,1,3,1,,,,
05/12/2013,05:15:00,1.45263532198153,1,3,1,,,,
05/12/2013,05:30:00,1.44264311879205,1,3,1,,,,
05/12/2013,05:45:00,1.45265091560257,1,3,1,,,,
05/12/2013,06:00:00,1.44265871241309,1,3,1,,,,
05/12/2013,06:15:00,1.44266650922361,1,3,1,,,,
05/12/2013,06:30:00,1.44267430603413,1,3,1,,,,
05/12/2013,06:45:00,1.44268210284465,1,3,1,,,,
05/12/2013,07:00:00,1.43268989965517,1,3,1,,,,
05/12/2013,07:15:00,1.44269769646569,1,3,1,,,,
05/12/2013,07:30:00,1.44270549327621,1,3,1,,,,
05/12/2013,07:45:00,1.44271329008672,1,3,1,,,,
05/12/2013,08:00:00,1.43272108689725,1,3,1,,,,
05/12/2013,08:15:00,1.44272888370776,1,3,1,,,,
05/12/2013,08:30:00,1.43273668051828,1,3,1,,,,
05/12/2013,08:45:00,1.43274447732881,1,3,1,,,,
05/12/2013,09:00:00,1.43275227413932,1,3,1,,,,
05/12/2013,09:15:00,1.43276007094984,1,3,1,,,,
05/12/2013,09:30:00,1.43276786776037,1,3,1,,,,
05/12/2013,09:45:00,1.42277566457088,1,3,1,,,,
05/12/2013,10:00:00,1.4327834613814,1,3,1,,,,
05/12/2013,10:15:00,1.43279125819192,1,3,1,,,,
05/12/2013,10:30:00,1.42279905500244,1,3,1,,,,
05/12/2013,10:45:00,1.42280685181296,1,3,1,,,,
05/12/2013,11:00:00,1.42281464862348,1,3,1,,,,
05/12/2013,11:15:00,1.422822445434,1,3,1,,,,
05/12/2013,11:30:00,1.41283024224451,1,3,1,,,,
05/12/2013,11:45:00,1.41283803905504,1,3,1,,,,
05/12/2013,12:00:00,1.41284583586556,1,3,1,,,,
05/12/2013,12:15:00,1.41285363267607,1,3,1,,,,
05/12/2013,12:30:00,1.4128614294866,1,3,1,,,,
05/12/2013,12:45:00,1.40286922629711,1,3,1,,,,
05/12/2013,13:00:00,1.40287702310763,1,3,1,,,,
05/12/2013,13:15:00,1.40288481991815,1,3,1,,,,
05/12/2013,13:30:00,1.40289261672867,1,3,1,,,,
05/12/2013,13:45:00,1.39290041353919,1,3,1,,,,
05/12/2013,14:00:00,1.39290821034971,1,3,1,,,,
05/12/2013,14:15:00,1.40291600716023,1,3,1,,,,
05/12/2013,14:30:00,1.39292380397075,1,3,1,,,,
05/12/2013,14:45:00,1.39293160078127,1,3,1,,,,
05/12/2013,15:00:00,1.40293939759179,1,3,1,,,,
05/12/2013,15:15:00,1.39294719440231,1,3,1,,,,
05/12/2013,15:30:00,1.39295499121283,1,3,1,,,,
05/12/2013,15:45:00,1.39296278802335,1,3,1,,,,
05/12/2013,16:00:00,1.39297058483386,1,3,1,,,,
05/12/2013,16:15:00,1.38297838164439,1,3,1,,,,
05/12/2013,16:30:00,1.3829861784549,1,3,1,,,,
05/12/2013,16:45:00,1.38299397526542,1,3,1,,,,
05/12/2013,17:00:00,1.39300177207594,1,3,1,,,,
05/12/2013,17:15:00,1.38300956888646,1,3,1,,,,
05/12/2013,17:30:00,1.38301736569698,1,3,1,,,,
05/12/2013,17:45:00,1.3830251625075,1,3,1,,,,
05/12/2013,18:00:00,1.38303295931802,1,3,1,,,,
05/12/2013,18:15:00,1.38304075612854,1,3,1,,,,
05/12/2013,18:30:00,1.39304855293906,1,3,1,,,,
05/12/2013,18:45:00,1.38305634974958,1,3,1,,,,
05/12/2013,19:00:00,1.3830641465601,1,3,1,,,,
05/12/2013,19:15:00,1.38307194337062,1,3,1,,,,
05/12/2013,19:30:00,1.39307974018114,1,3,1,,,,
05/12/2013,19:45:00,1.39308753699165,1,3,1,,,,
05/12/2013,20:00:00,1.39309533380218,1,3,1,,,,
05/12/2013,20:15:00,1.39310313061269,1,3,1,,,,
05/12/2013,20:30:00,1.43311092742321,1,3,1,,,,
05/12/2013,20:45:00,1.43311872423373,1,3,1,,,,
05/12/2013,21:00:00,1.44312652104425,1,3,1,,,,
05/12/2013,21:15:00,1.43313431785477,1,3,1,,,,
05/12/2013,21:30:00,1.44314211466529,1,3,1,,,,
05/12/2013,21:45:00,1.44314991147581,1,3,1,,,,
05/12/2013,22:00:00,1.44315770828633,1,3,1,,,,
05/12/2013,22:15:00,1.44316550509685,1,3,1,,,,
05/12/2013,22:30:00,1.45317330190737,1,3,1,,,,
05/12/2013,22:45:00,1.45318109871789,1,3,1,,,,
05/12/2013,23:00:00,1.45318889552841,1,3,1,,,,
05/12/2013,23:15:00,1.45319669233892,1,3,1,,,,
05/12/2013,23:30:00,1.45320448914944,1,3,1,,,,
05/12/2013,23:45:00,1.45321228595997,1,3,1,,,,
05/13/2013,00:00:00,1.46322008277049,1,3,1,,,,
05/13/2013,00:15:00,1.463227879581,1,3,1,,,,
05/13/2013,00:30:00,1.46323567639153,1,3,1,,,,
05/13/2013,00:45:00,1.47324347320204,1,3,1,,,,
05/13/2013,01:00:00,1.46325127001256,1,3,1,,,,
05/13/2013,01:15:00,1.46325906682308,1,3,1,,,,
05/13/2013,01:30:00,1.4732668636336,1,3,1,,,,
05/13/2013,01:45:00,1.46327466044412,1,3,1,,,,
05/13/2013,02:00:00,1.46328245725464,1,3,1,,,,
05/13/2013,02:15:00,1.45329025406516,1,3,1,,,,
05/13/2013,02:30:00,1.46329805087568,1,3,1,,,,
05/13/2013,02:45:00,1.4633058476862,1,3,1,,,,
05/13/2013,03:00:00,1.45331364449672,1,3,1,,,,
05/13/2013,03:15:00,1.45332144130724,1,3,1,,,,
05/13/2013,03:30:00,1.45332923811776,1,3,1,,,,
05/13/2013,03:45:00,1.45333703492828,1,3,1,,,,
05/13/2013,04:00:00,1.45334483173879,1,3,1,,,,
05/13/2013,04:15:00,1.45335262854932,1,3,1,,,,
05/13/2013,04:30:00,1.44336042535983,1,3,1,,,,
05/13/2013,04:45:00,1.44336822217035,1,3,1,,,,
05/13/2013,05:00:00,1.44337601898087,1,3,1,,,,
05/13/2013,05:15:00,1.44338381579139,1,3,1,,,,
05/13/2013,05:30:00,1.43339161260191,1,3,1,,,,
05/13/2013,05:45:00,1.43339940941243,1,3,1,,,,
05/13/2013,06:00:00,1.43340720622295,1,3,1,,,,
05/13/2013,06:15:00,1.42341500303347,1,3,1,,,,
05/13/2013,06:30:00,1.43342279984399,1,3,1,,,,
05/13/2013,06:45:00,1.42343059665451,1,3,1,,,,
05/13/2013,07:00:00,1.42343839346502,1,3,1,,,,
05/13/2013,07:15:00,1.42344619027555,1,3,1,,,,
05/13/2013,07:30:00,1.42345398708606,1,3,1,,,,
05/13/2013,07:45:00,1.42346178389658,1,3,1,,,,
05/13/2013,08:00:00,1.4234695807071,1,3,1,,,,
05/13/2013,08:15:00,1.42347737751762,1,3,1,,,,
05/13/2013,08:30:00,1.42348517432814,1,3,1,,,,
05/13/2013,08:45:00,1.41349297113866,1,3,1,,,,
05/13/2013,09:00:00,1.42350076794918,1,3,1,,,,
05/13/2013,09:15:00,1.4135085647597,1,3,1,,,,
05/13/2013,09:30:00,1.41351636157022,1,3,1,,,,
05/13/2013,09:45:00,1.41352415838074,1,3,1,,,,
05/13/2013,10:00:00,1.40353195519126,1,3,1,,,,
05/13/2013,10:15:00,1.41353975200178,1,3,1,,,,
05/13/2013,10:30:00,1.4135475488123,1,3,1,,,,
05/13/2013,10:45:00,1.40355534562281,1,3,1,,,,
05/13/2013,11:00:00,1.40356314243334,1,3,1,,,,
05/13/2013,11:15:00,1.40357093924385,1,3,1,,,,
05/13/2013,11:30:00,1.39357873605437,1,3,1,,,,
05/13/2013,11:45:00,1.3935865328649,1,3,1,,,,
05/13/2013,12:00:00,1.39359432967541,1,3,1,,,,
05/13/2013,12:15:00,1.40360212648593,1,3,1,,,,
05/13/2013,12:30:00,1.40360992329646,1,3,1,,,,
05/13/2013,12:45:00,1.39361772010697,1,3,1,,,,
05/13/2013,13:00:00,1.39362551691749,1,3,1,,,,
05/13/2013,13:15:00,1.39363331372801,1,3,1,,,,
05/13/2013,13:30:00,1.38364111053853,1,3,1,,,,
05/13/2013,13:45:00,1.38364890734905,1,3,1,,,,
05/13/2013,14:00:00,1.38365670415957,1,3,1,,,,
05/13/2013,14:15:00,1.38366450097009,1,3,1,,,,
05/13/2013,14:30:00,1.38367229778061,1,3,1,,,,
05/13/2013,14:45:00,1.37368009459113,1,3,1,,,,
05/13/2013,15:00:00,1.37368789140165,1,3,1,,,,
05/13/2013,15:15:00,1.37369568821217,1,3,1,,,,
05/13/2013,15:30:00,1.37370348502269,1,3,1,,,,
05/13/2013,15:45:00,1.3837112818332,1,3,1,,,,
05/13/2013,16:00:00,1.38371907864372,1,3,1,,,,
05/13/2013,16:15:00,1.38372687545424,1,3,1,,,,
05/13/2013,16:30:00,1.38373467226476,1,3,1,,,,
05/13/2013,16:45:00,1.38374246907528,1,3,1,,,,
05/13/2013,17:00:00,1.3837502658858,1,3,1,,,,
05/13/2013,17:15:00,1.37375806269632,1,3,1,,,,
05/13/2013,17:30:00,1.37376585950684,1,3,1,,,,
05/13/2013,17:45:00,1.37377365631736,1,3,1,,,,
05/13/2013,18:00:00,1.37378145312788,1,3,1,,,,
05/13/2013,18:15:00,1.3737892499384,1,3,1,,,,
05/13/2013,18:30:00,1.37379704674892,1,3,1,,,,
05/13/2013,18:45:00,1.37380484355944,1,3,1,,,,
05/13/2013,19:00:00,1.38381264036995,1,3,1,,,,
05/13/2013,19:15:00,1.38382043718048,1,3,1,,,,
05/13/2013,19:30:00,1.38382823399099,1,3,1,,,,
05/13/2013,19:45:00,1.38383603080151,1,3,1,,,,